Tracking 30685 objects as of 17-Jun-2025
HD Live streaming from Space Station
objects crossing your sky now

DMSP 5D-3 F17 DEB

Track DMSP 5D-3 F17 DEB now!
10-day predictions


NORAD ID: 29637
Int'l Code: 2006-050BV
Perigee: 756.5 km
Apogee: 771.1 km
Inclination: 98.5 °
Period: 100.0 minutes
Semi major axis: 7134 km
RCS: 0.1292 m2 (medium)
Launch date: November 4, 2006
Source: United States (US)
Launch site: AIR FORCE WESTERN TEST RANGE (AFWTR)

Note: This is SATELLITE DEBRIS
Your satellite tracking list
Your tracking list is empty




NASA's NSSDC Master Catalog

Two Line Element Set (TLE):
1 29637U 06050BV  25168.11466586  .00003413  00000-0  10845-2 0  9998
2 29637  98.5279 208.2909 0010243 119.9700 240.2506 14.40554999962552
Source of the keplerian elements: AFSPC